RH
22 23 23 24 30 33 31 35 37 51 69 71 65 56 58 55 43 39 40 34 26 23 22 23 24 25 28 37 41 33 20 43 87 98 100 100 96 98 94 90 84 81 81 88 94 93 103 103 96 92 86 80 71 67 67 75 94 102 99 98 100 103 102 100 88 68 54 51 46 35 25 21 24 26 22 16 14 15 27 38 46 48 45 68 73 66 63 53 51 44 42 38 28 24 27 38 46
21 22 22 23 26 32 35 35 37 45 48 44 49 54 60 60 46 42 41 31 25 23 22 22 24 24 24 25 23 25 22 23 40 60 87 99 97 98 91 88 89 91 94 97 100 104 107 104 104 98 86 74 63 65 74 87 97 94 92 93 96 98 98 90 71 57 53 48 36 25 21 22 23 19 15 12 14 19 32 40 46 46 51 81 81 69 66 57 54 45 48 46 36 31 33 44 50
20 21 21 26 26 35 49 47 35 44 67 61 51 60 61 55 49 49 45 34 29 25 23 21 21 24 21 22 22 22 22 19 17 21 43 63 69 71 70 75 83 92 97 98 102 104 100 102 100 88 76 65 62 73 81 83 85 88 92 95 97 95 88 73 60 57 48 35 24 21 21 19 16 13 13 13 17 23 33 40 45 48 56 84 83 70 68 60 56 50 50 49 47 41 39 46 52
22 24 26 31 29 39 51 51 42 47 78 85 75 75 64 52 49 46 42 34 31 27 23 22 21 22 22 22 22 21 21 20 20 18 20 28 36 39 39 43 59 75 75 74 81 77 77 82 76 71 76 76 77 84 84 86 94 98 100 99 94 86 74 61 54 44 30 24 22 20 16 14 15 13 13 13 17 23 31 41 49 54 54 65 72 71 71 63 56 61 61 58 59 53 49 51 54
18 24 37 38 29 37 42 41 42 47 61 69 70 68 62 56 46 36 33 30 28 26 23 24 23 21 23 24 22 22 23 23 23 24 20 18 22 22 19 20 29 39 36 39 47 47 54 58 63 82 96 99 95 90 89 94 100 98 94 88 81 75 62 48 35 25 23 24 20 16 15 16 15 13 13 12 16 21 30 45 53 59 52 46 61 73 75 64 54 68 75 65 67 68 59 57 60
20 21 34 39 40 42 42 43 39 47 51 45 50 49 52 49 39 32 29 29 27 26 24 23 24 22 24 27 25 22 23 28 29 25 20 17 19 17 16 16 15 16 15 22 30 34 45 53 74 97 98 98 94 89 90 92 95 93 87 76 68 58 40 28 24 24 24 20 17 17 16 15 13 12 12 12 16 23 31 46 53 58 53 39 55 78 82 68 53 69 85 71 64 79 80 65 61
21 17 25 37 53 48 40 50 37 40 47 38 44 41 38 36 30 30 26 27 27 26 26 24 24 23 23 26 25 25 28 32 33 28 24 20 17 15 13 13 12 15 20 26 34 44 59 71 83 86 82 86 89 93 97 97 96 88 73 55 43 31 22 24 25 24 21 18 18 15 13 12 11 11 12 14 19 28 38 47 51 55 50 36 54 83 89 77 58 61 86 90 66 65 90 88 67
24 18 23 34 43 40 39 55 43 37 42 36 40 34 30 30 28 27 26 28 27 25 24 24 23 22 21 23 25 29 35 36 35 28 24 18 11 10 10 14 19 30 44 52 58 68 79 84 85 85 89 93 95 97 93 86 76 60 42 28 23 22 24 26 24 21 19 17 14 11 10 9 9 11 13 17 22 30 38 44 48 49 44 34 54 87 95 91 77 61 69 98 94 63 74 97 89
27 22 27 49 53 51 45 46 42 34 33 30 31 28 26 25 25 24 25 29 29 25 22 22 21 21 21 21 26 33 37 36 30 23 17 12 10 12 15 25 37 51 65 73 78 86 91 93 96 96 95 90 83 75 63 53 39 26 20 20 23 25 26 23 21 18 14 11 9 9 8 9 9 10 12 15 20 25 30 37 41 42 41 34 56 89 98 99 94 79 60 75 98 73 53 74 95
29 38 47 65 61 51 39 31 33 29 27 28 24 21 20 20 21 20 20 24 23 21 20 20 19 20 20 20 26 32 34 28 22 17 12 13 19 25 32 42 53 65 75 84 92 99 102 99 92 82 72 63 52 42 33 24 17 18 21 25 27 25 23 19 16 11 9 9 9 11 11 12 12 12 12 13 15 17 21 29 33 40 45 37 62 95 99 97 94 93 76 62 71 66 48 53 77
23 45 54 55 41 30 21 19 24 20 18 19 18 16 15 14 14 15 15 17 18 17 17 17 17 17 16 17 22 25 24 19 15 14 17 26 36 44 50 55 62 71 80 91 97 98 93 81 68 56 46 36 28 21 16 15 19 25 27 27 25 21 17 12 10 8 9 10 13 14 15 15 15 15 14 13 13 14 16 21 25 39 54 48 67 99 97 87 84 90 87 72 64 65 59 50 57
26 46 54 46 28 23 19 16 17 12 9 8 10 10 9 10 8 10 10 11 13 13 13 13 14 14 13 15 17 17 16 15 16 21 30 39 47 54 56 60 69 79 85 88 84 77 66 53 43 32 25 18 14 13 17 24 27 27 26 24 19 14 11 9 8 9 11 13 15 15 16 16 15 15 14 16 16 16 16 19 26 42 67 68 70 92 94 80 77 91 96 85 71 70 72 60 53
41 50 55 48 19 15 21 19 18 10 8 7 7 8 7 8 7 8 8 9 10 10 11 11 13 13 12 12 13 14 17 21 25 31 38 42 47 52 58 68 78 83 80 72 61 49 38 29 21 17 17 14 16 22 27 29 26 24 21 17 12 9 8 8 10 11 13 14 14 14 15 15 14 15 14 16 17 20 21 20 27 42 76 93 87 93 96 82 75 90 102 95 78 73 79 72 60
52 57 50 52 22 10 16 12 15 9 7 8 6 8 7 7 7 8 9 8 9 9 10 9 10 11 9 9 9 13 20 25 28 33 36 40 49 60 72 78 76 70 57 45 34 23 19 17 15 20 20 20 27 29 28 25 22 20 14 10 9 9 9 10 11 11 12 13 14 14 15 17 17 18 16 16 16 19 24 25 27 36 64 88 90 93 100 97 87 91 100 101 87 80 90 86 73
65 78 53 55 32 9 12 9 10 8 7 8 7 8 7 8 8 8 9 9 10 11 11 12 11 12 12 10 11 14 19 23 27 33 40 51 65 79 82 71 56 41 27 21 17 13 16 19 19 22 24 29 33 25 22 21 16 13 9 9 9 9 10 11 11 11 13 14 14 15 19 22 20 20 19 18 16 16 20 23 26 29 40 52 57 61 70 77 75 77 88 93 81 74 91 94 82
47 57 38 55 48 14 11 10 8 9 8 8 7 8 8 8 9 9 10 10 11 12 12 13 14 14 14 13 16 20 24 31 39 47 57 67 73 71 59 41 26 16 13 15 16 16 20 22 22 22 24 29 29 22 19 15 10 9 9 9 9 10 11 10 11 13 16 16 18 21 24 27 24 23 21 19 20 18 18 19 19 21 24 28 33 38 44 51 51 50 55 62 61 54 68 85 79
34 41 40 63 59 23 11 10 9 9 8 9 8 8 9 9 9 9 9 10 11 15 20 22 23 22 24 27 29 34 41 50 58 62 63 59 50 37 24 16 13 14 16 18 18 18 19 23 26 21 23 28 24 18 13 9 9 9 9 10 9 10 10 12 15 18 19 18 22 24 27 32 30 25 22 22 24 25 28 27 22 18 17 18 20 26 35 43 48 47 41 37 45 50 56 75 78
34 57 71 85 72 32 14 11 9 9 9 8 9 8 8 8 9 9 9 9 15 27 36 38 37 36 39 44 49 53 56 57 54 48 39 29 20 14 13 14 15 15 14 17 19 18 18 23 27 23 25 27 18 12 9 9 10 9 10 10 10 11 14 17 19 20 21 20 23 26 31 34 30 26 24 26 29 33 38 34 26 22 18 18 18 22 27 29 36 44 45 35 36 61 79 91 95
45 77 83 98 87 37 15 13 9 13 16 10 9 10 8 9 8 9 10 13 21 31 38 40 39 39 41 47 52 53 46 38 29 23 17 13 13 13 14 14 13 12 12 17 20 22 24 24 25 23 20 18 12 10 9 9 10 10 11 11 13 16 19 21 21 22 23 22 24 29 36 35 31 29 29 32 35 40 44 39 30 28 23 19 22 30 35 28 26 31 34 37 44 72 93 90 87
66 94 84 98 92 44 21 17 10 14 18 11 9 10 8 9 8 10 13 20 29 33 36 36 34 33 34 36 36 32 24 18 14 12 11 11 12 11 11 10 11 13 14 18 19 22 28 24 22 18 13 12 9 9 10 10 11 13 14 16 20 21 23 25 24 24 24 24 28 34 38 36 34 36 38 40 43 44 42 39 33 30 28 23 22 29 37 31 33 45 38 37 52 76 89 73 59
62 88 90 104 93 62 43 26 17 20 20 15 13 12 11 12 14 18 21 29 36 36 33 28 29 28 22 20 18 16 15 13 11 10 10 10 9 9 10 10 12 14 15 18 20 21 25 22 17 13 10 10 9 11 13 13 15 19 21 22 24 25 27 32 30 28 29 29 32 35 37 37 39 41 45 46 50 50 39 35 35 29 27 28 27 26 29 27 37 57 46 33 40 53 72 66 54
34 55 79 102 91 76 68 50 38 36 34 32 27 23 23 24 25 28 31 32 29 24 21 17 21 21 14 13 13 13 13 12 11 10 10 10 10 11 11 12 13 16 18 18 20 21 20 16 12 10 9 10 10 13 16 19 22 25 24 24 27 30 33 34 32 30 30 30 29 31 33 38 40 42 48 52 54 54 41 34 36 31 30 34 33 27 24 25 35 44 29 24 29 26 37 42 39
15 22 41 66 71 75 82 71 56 48 46 43 38 34 31 30 29 29 27 23 18 16 16 14 15 15 14 16 15 14 13 13 14 14 14 14 14 14 14 15 15 17 20 19 19 19 15 12 10 10 10 10 11 16 24 28 27 25 25 26 31 35 38 36 30 27 26 25 25 27 32 37 39 43 50 55 56 55 44 31 31 30 30 31 30 31 30 27 32 35 25 22 27 26 30 28 21
13 15 19 26 40 69 87 77 64 55 48 42 38 35 28 26 24 21 19 16 16 17 18 18 18 18 17 17 17 16 15 15 16 16 16 15 15 15 15 15 15 18 19 19 18 14 11 10 10 10 10 12 18 27 31 29 26 24 26 28 31 35 38 35 29 24 23 23 24 26 34 39 40 45 48 49 48 45 40 31 32 37 40 42 35 32 35 32 31 32 28 24 23 27 30 25 16
14 13 20 24 35 63 77 72 67 57 47 42 35 30 25 21 18 17 17 19 23 25 26 25 24 22 20 19 20 20 20 19 18 17 16 15 15 14 14 15 16 18 18 18 14 12 12 10 10 11 12 20 30 34 30 26 25 24 26 28 31 36 34 27 23 23 23 23 24 26 35 42 43 46 45 39 36 39 41 41 48 53 49 49 44 38 38 39 41 39 33 31 29 29 28 24 21
20 14 15 28 42 57 60 56 54 48 43 37 31 27 23 19 19 21 24 28 31 33 33 30 28 26 24 25 26 25 24 21 18 15 13 13 14 14 15 16 17 17 17 15 11 11 13 11 11 13 20 33 38 33 27 25 26 26 29 34 36 35 27 20 21 22 22 23 24 26 31 39 43 47 44 35 35 46 49 49 57 57 45 44 45 42 42 42 44 45 41 40 38 37 38 34 29
20 23 16 22 36 44 41 36 37 37 34 30 29 27 21 20 23 28 37 42 40 38 36 33 31 29 29 29 27 23 18 16 14 12 12 14 15 16 17 17 16 15 14 12 12 14 12 11 13 19 33 41 38 31 28 27 26 28 33 36 33 26 20 19 20 20 21 23 24 26 28 32 36 41 43 37 39 46 44 44 49 48 45 49 48 43 49 51 43 43 44 43 41 40 41 41 40
16 27 26 22 29 33 28 25 27 27 25 27 36 37 28 24 28 37 47 51 47 43 39 36 34 33 31 27 20 16 14 14 14 14 15 16 17 17 16 15 14 13 12 11 15 18 18 17 20 31 43 44 37 33 30 28 29 33 35 29 23 19 19 19 19 20 21 22 23 26 27 29 31 34 39 39 38 39 38 43 45 43 47 49 51 56 66 65 49 42 43 40 40 39 37 38 39
12 22 33 30 26 27 26 22 20 18 18 23 34 44 38 30 35 43 45 48 49 44 41 41 39 33 27 20 16 16 15 15 16 17 17 17 16 15 14 13 12 11 11 11 13 17 22 24 30 40 45 42 39 35 30 29 31 35 32 22 18 18 18 18 18 20 20 22 24 26 26 28 29 30 35 37 36 36 36 41 42 43 47 45 50 59 61 58 48 41 39 36 37 36 34 35 34
14 13 27 38 34 26 22 21 18 15 16 17 22 34 36 31 33 36 35 38 41 40 44 45 36 28 25 20 18 18 17 17 17 16 15 14 14 13 12 12 12 12 12 14 14 17 20 26 34 39 41 41 38 34 30 29 29 30 26 19 17 18 17 18 19 19 20 21 23 25 27 28 29 30 32 35 35 36 36 38 40 44 46 46 50 50 46 44 43 39 35 33 34 32 31 31 31
18 13 15 28 39 38 29 23 21 17 16 16 19 29 33 30 30 30 29 32 34 39 45 40 31 30 28 22 20 20 18 16 15 13 12 12 12 11 12 11 13 14 15 17 19 20 23 27 32 36 39 39 33 31 31 30 27 23 20 17 17 18 18 18 18 19 20 20 22 24 25 26 28 30 31 33 36 37 38 38 40 44 44 47 51 48 44 41 39 36 31 30 30 29 29 28 28
17 17 14 13 23 34 35 29 24 21 20 21 27 35 36 31 29 29 29 32 36 40 40 35 33 33 28 24 21 17 14 12 11 11 11 11 12 12 14 15 16 19 21 23 24 24 27 29 33 36 35 29 26 28 31 30 24 18 17 17 17 18 18 18 18 19 19 20 22 22 25 30 28 28 29 31 34 38 39 39 43 47 44 46 53 51 48 44 37 32 29 30 30 29 28 27 26
16 16 16 14 12 18 29 32 25 21 23 26 29 32 31 25 23 25 31 37 39 38 36 34 36 34 27 22 16 12 11 12 12 13 14 13 16 18 20 23 24 26 27 27 28 29 32 34 36 34 26 21 22 26 27 24 19 16 17 17 18 18 18 18 17 18 18 19 21 21 24 32 29 26 29 30 33 37 40 40 44 51 47 43 50 54 54 52 47 41 39 39 38 38 37 34 32
18 16 16 17 14 12 17 25 27 22 20 21 21 22 22 20 19 23 33 38 36 35 36 36 38 33 23 16 12 12 15 17 19 18 18 19 21 25 29 31 32 32 31 31 32 33 35 36 34 28 20 19 20 21 21 18 16 17 18 18 18 19 18 18 17 17 18 18 20 21 21 24 25 25 29 32 35 39 43 44 43 46 49 47 47 51 53 55 55 54 52 50 46 45 44 43 42
18 17 16 16 16 15 12 16 22 24 20 16 14 14 16 18 19 23 30 32 33 35 34 33 35 26 15 13 14 15 17 19 21 20 21 24 27 32 36 37 35 33 31 30 30 32 33 33 31 25 19 18 18 17 17 16 17 18 18 19 18 18 18 18 17 17 17 17 18 20 20 20 22 24 28 33 38 43 48 52 50 44 45 49 48 48 51 52 53 54 55 53 47 43 41 40 40
19 18 17 16 15 16 15 13 14 19 21 16 12 12 12 15 18 24 29 31 34 35 29 25 26 18 12 15 17 18 18 18 18 19 22 25 29 35 36 35 33 30 28 26 27 30 31 30 28 23 18 18 17 16 16 16 17 18 18 19 18 19 19 17 18 17 16 17 17 18 19 20 21 23 27 32 37 45 52 56 57 50 43 45 47 46 49 51 53 53 52 50 47 44 41 37 36
21 20 19 18 16 16 16 15 15 16 17 16 13 14 15 13 14 20 29 37 41 37 26 20 19 16 18 21 21 22 22 19 18 19 22 25 29 33 32 30 28 27 26 26 27 28 27 24 21 19 17 17 16 15 16 17 17 18 18 18 19 19 18 18 17 17 17 16 17 18 18 20 22 23 29 33 35 41 53 57 54 50 43 42 45 45 45 48 53 55 53 50 46 44 40 35 34
23 22 20 19 18 17 15 15 17 17 19 19 14 17 25 22 15 15 23 35 45 44 36 30 28 28 32 34 33 34 29 22 20 21 23 25 29 31 28 27 26 26 26 26 27 26 23 19 17 17 16 15 15 15 16 17 18 18 18 18 19 19 18 18 17 16 17 17 17 18 18 22 25 26 31 37 37 36 44 53 54 51 45 41 41 41 43 44 48 52 51 46 43 41 37 35 35
23 24 22 20 19 18 17 15 16 16 19 22 16 21 33 31 23 18 18 26 35 41 43 43 43 44 45 44 42 39 32 24 22 24 25 26 29 30 26 26 26 24 25 25 24 23 20 18 17 16 15 15 15 15 16 17 18 18 19 19 19 20 19 18 17 17 17 17 17 19 23 28 31 34 36 38 40 36 36 43 50 53 51 46 41 38 42 45 45 45 45 41 38 37 35 36 37
22 24 23 22 20 19 18 16 16 15 16 21 20 23 33 33 28 24 21 21 22 25 30 33 35 36 34 33 31 29 27 25 25 26 27 28 31 30 27 29 27 22 23 23 20 18 16 16 16 15 15 15 15 16 17 17 18 19 19 20 19 20 19 18 17 18 18 20 21 25 31 36 37 39 40 39 38 37 35 36 41 47 52 53 49 43 41 44 45 45 45 41 36 33 34 37 39
21 23 24 23 21 20 20 17 18 17 15 18 20 22 31 31 27 26 24 23 21 19 20 23 25 25 24 24 24 25 26 26 26 27 27 29 31 30 29 30 27 23 22 20 17 16 15 14 14 15 15 15 16 16 17 18 19 19 19 20 19 18 18 18 18 20 23 27 31 35 37 39 39 38 38 38 36 35 36 37 38 41 44 48 53 53 48 44 45 46 47 45 37 32 33 37 42
20 20 22 23 22 21 21 20 19 18 16 16 17 20 26 27 24 24 23 23 23 21 21 23 24 24 24 24 24 26 27 28 27 26 26 27 28 28 28 26 24 23 21 18 16 15 15 15 14 15 15 16 17 17 18 19 19 20 20 19 18 18 18 19 21 24 30 34 37 38 38 38 38 38 37 36 36 36 35 38 40 40 41 43 47 52 53 50 49 50 50 48 41 33 32 35 41
24 21 21 20 21 22 22 22 20 19 18 16 16 17 18 20 21 20 21 22 21 22 22 22 23 23 25 27 27 27 27 29 29 27 26 26 25 25 24 24 23 21 19 16 16 15 15 15 15 16 17 17 18 19 20 20 20 19 18 18 18 18 19 21 26 31 35 37 37 37 37 37 37 37 38 37 37 38 38 40 42 41 44 50 54 52 51 52 54 56 53 50 47 38 33 34 39
28 25 22 19 20 22 23 23 21 20 19 18 17 16 14 15 17 18 20 20 20 21 21 21 23 23 23 25 25 26 27 27 27 26 25 23 23 24 23 24 22 19 18 16 15 16 15 16 16 16 17 18 19 20 20 19 19 18 17 18 18 20 23 28 32 36 37 37 37 37 37 37 37 37 39 39 40 41 41 42 42 43 47 56 63 62 55 51 52 53 52 51 49 40 35 38 42
32 29 24 22 19 19 21 22 22 20 19 19 18 17 17 15 15 17 18 19 20 20 20 24 26 22 23 27 26 24 24 25 24 22 22 23 22 23 22 21 20 17 16 16 15 16 16 16 17 17 18 19 20 20 19 18 17 18 18 20 23 27 31 34 36 36 36 36 36 37 37 38 39 40 41 42 43 42 42 41 41 42 45 48 54 60 59 54 51 53 56 54 49 44 43 45 47
34 32 26 24 22 20 20 19 20 18 17 20 20 19 19 17 16 16 16 17 17 18 20 22 27 26 24 29 29 21 18 20 22 21 21 22 22 21 20 18 17 17 16 16 16 16 17 17 17 18 19 19 19 18 18 17 17 19 22 27 31 33 34 36 36 35 35 36 36 37 39 40 41 43 43 43 41 39 36 35 36 38 37 33 33 41 50 55 56 58 60 60 56 54 51 48 49
34 31 28 28 26 24 20 18 17 14 15 20 22 22 21 19 19 17 17 16 15 20 21 21 33 39 37 40 41 37 32 22 19 22 19 19 19 18 18 17 16 16 16 16 16 16 17 17 18 19 20 19 19 18 17 18 20 23 28 32 34 34 34 34 34 35 36 36 37 39 42 43 44 43 42 40 38 35 31 29 29 29 28 25 22 24 35 50 60 63 65 66 63 59 53 47 49
34 29 28 31 29 25 23 21 17 13 15 21 23 24 23 21 20 19 19 18 16 20 24 27 33 39 51 59 53 53 50 30 17 17 16 15 15 15 15 16 16 16 16 16 17 17 18 19 20 19 19 18 17 18 19 22 25 29 31 33 33 33 34 34 34 37 37 37 39 42 43 44 43 42 40 39 36 33 30 26 24 23 22 24 23 22 27 38 52 58 59 60 59 55 50 46 53
35 29 29 35 32 27 25 24 21 17 19 23 25 24 24 23 22 21 21 20 18 18 23 27 23 23 37 44 43 51 57 49 31 16 14 15 13 15 15 14 15 15 16 16 17 19 19 20 20 18 18 18 18 20 22 26 29 31 31 32 33 34 34 35 36 37 38 40 41 43 44 43 41 40 38 35 32 29 26 23 22 24 26 29 29 27 26 30 41 50 53 54 52 52 51 48 57
38 32 31 36 34 29 27 26 25 23 23 28 28 24 24 25 23 22 22 21 21 19 20 23 19 17 20 23 35 48 55 68 53 17 12 18 13 16 16 15 17 15 16 18 18 20 20 19 19 17 18 20 22 25 27 30 30 30 31 32 33 35 35 36 37 38 39 40 42 43 42 41 39 37 34 32 29 25 24 24 24 25 29 35 38 37 37 41 48 54 61 65 61 58 56 53 64
42 38 36 37 35 33 32 31 30 27 27 32 31 24 24 27 25 24 24 23 23 21 19 20 18 17 18 21 32 35 44 75 66 22 13 19 15 17 17 16 19 18 18 19 18 20 19 18 18 19 22 25 28 30 30 30 30 29 31 33 34 35 36 37 38 39 41 42 43 42 40 39 37 34 30 27 26 24 26 31 35 37 39 46 52 52 48 50 57 62 63 66 68 66 61 63 76
45 41 33 31 33 34 34 33 32 29 28 30 30 26 25 27 26 24 24 23 24 23 21 22 20 17 18 21 25 24 30 52 49 23 17 20 17 19 19 18 20 19 19 19 17 19 18 19 21 24 28 29 30 31 29 29 29 30 32 33 35 36 36 38 39 40 42 43 44 42 40 38 35 31 29 27 27 28 28 32 40 46 49 54 61 58 45 38 47 61 63 61 69 77 72 76 87
49 43 33 32 37 35 34 35 33 30 28 28 28 27 25 26 26 25 25 23 22 22 22 23 23 20 19 18 19 19 19 26 29 22 19 20 20 20 19 19 19 18 19 18 19 21 22 25 27 29 31 31 30 30 29 30 30 30 33 34 36 37 37 38 40 41 43 43 43 41 38 36 34 33 30 27 27 25 23 24 28 32 35 39 43 38 27 21 26 44 59 64 75 87 84 83 87
49 46 39 40 41 33 30 33 34 32 30 28 28 28 26 26 26 24 23 21 19 21 24 25 23 22 23 21 21 23 22 24 26 22 19 20 20 20 20 20 20 20 21 23 25 27 28 29 29 30 30 30 30 30 29 31 31 32 34 35 36 38 38 40 41 42 43 43 41 37 35 34 34 32 29 26 23 20 19 18 18 19 19 20 19 16 24 35 36 40 55 69 80 90 87 84 89
47 47 45 44 39 30 27 31 33 32 30 29 29 29 28 27 27 26 24 23 21 22 26 26 24 23 23 21 22 26 26 26 24 21 23 24 23 23 23 24 25 26 26 28 28 28 28 29 29 29 30 30 31 31 31 32 32 33 34 36 38 39 40 42 43 43 44 43 40 36 35 34 31 29 27 24 21 18 16 15 14 15 15 20 23 25 43 68 70 59 61 70 79 89 89 87 95
44 45 46 46 40 34 32 33 33 32 31 31 31 30 30 30 29 28 27 26 23 23 26 26 23 24 23 22 22 22 27 35 33 26 24 25 25 26 27 27 28 28 28 27 27 27 27 28 29 29 30 32 31 31 33 33 33 34 35 37 39 41 43 44 44 45 44 42 38 35 34 32 29 28 26 23 20 17 14 13 13 13 16 31 45 41 46 72 86 79 73 76 84 95 97 95 99
38 40 44 46 43 40 39 35 30 29 31 31 31 32 32 32 30 28 29 30 25 23 26 26 24 23 23 23 23 19 22 31 32 27 27 26 24 26 27 28 28 27 27 26 26 27 28 28 29 30 31 31 32 33 33 34 34 35 37 39 40 42 44 45 46 45 43 40 37 35 32 29 28 26 24 22 18 14 12 11 11 11 14 25 36 30 28 53 81 89 89 90 92 97 100 99 100
32 34 38 41 42 44 43 37 31 32 33 31 30 32 33 32 31 31 32 32 28 24 25 26 24 23 22 22 23 22 22 24 24 28 32 28 24 25 26 26 27 27 26 26 27 28 28 29 29 30 31 31 32 34 34 35 36 37 40 41 42 43 44 46 47 45 40 37 35 33 30 28 27 25 23 19 15 13 12 11 10 12 13 14 17 17 17 32 54 72 90 101 100 100 101 100 100
Wind_Speed
30 28 26 26 28 29 30 30 31 31 30 29 29 29 29 30 30 28 27 26 25 27 28 26 24 23 23 22 22 19 17 18 18 19 21 22 22 22 22 22 23 25 26 28 30 32 32 31 28 28 28 28 29 30 30 27 25 27 33 37 42 43 42 43 46 49 49 48 48 47 44 40 37 35 34 31 29 26 23 21 20 19 16 14 15 18 20 22 22 21 19 17 18 16 15 16 16
29 28 26 26 29 31 32 33 33 30 28 30 30 28 27 26 28 28 28 27 26 27 27 27 25 25 24 23 22 21 19 19 19 20 20 20 22 22 22 23 25 27 28 29 31 32 32 31 30 31 32 31 31 30 27 23 25 32 36 38 42 44 44 46 48 48 47 47 45 41 38 36 34 33 31 29 26 24 21 19 18 16 13 12 14 16 18 20 20 21 20 17 18 16 15 15 15
28 26 25 25 29 32 32 33 34 31 25 28 31 28 27 25 26 28 27 26 25 26 27 26 26 26 26 25 24 23 23 22 22 23 24 25 25 26 26 26 28 29 30 30 30 30 31 31 32 33 33 32 30 28 26 26 29 33 35 37 39 42 44 46 46 46 45 43 39 36 34 34 32 31 29 27 25 22 20 18 16 13 10 10 12 15 16 18 19 21 22 19 18 17 15 14 14
26 25 24 25 28 31 33 33 35 35 29 26 27 27 27 27 27 29 27 26 26 26 27 26 27 27 27 27 27 27 26 25 25 26 27 28 29 30 30 29 30 30 31 32 32 32 33 33 33 32 31 30 29 28 28 29 31 33 34 36 38 41 43 44 43 42 39 36 34 33 32 31 30 29 27 25 23 21 18 16 14 10 9 9 11 13 15 17 18 19 22 21 19 19 16 14 13
26 25 24 25 30 32 34 35 35 36 34 30 29 28 27 29 29 30 30 29 28 28 27 27 27 27 27 29 29 29 28 27 28 28 29 30 31 32 32 31 31 31 31 31 32 32 32 32 30 29 28 28 30 31 31 31 32 34 36 38 40 42 42 41 39 36 33 31 31 31 30 30 29 27 25 23 21 18 15 14 11 8 8 9 10 12 14 16 17 17 20 21 21 19 18 14 12
26 27 25 27 31 34 35 35 36 35 36 36 35 33 30 31 31 31 31 30 29 29 29 29 29 28 28 29 30 30 30 29 29 29 30 30 31 32 32 32 31 31 30 30 30 30 29 27 26 27 27 29 31 31 31 31 33 35 37 39 40 40 38 35 32 30 29 29 29 29 30 29 28 26 24 21 18 15 13 11 9 7 7 9 9 10 13 15 16 15 15 18 20 19 18 16 13
26 27 26 29 32 35 36 34 36 37 36 37 37 36 34 33 33 33 32 31 31 31 31 31 31 30 29 30 30 31 31 30 29 29 29 30 31 31 30 30 29 29 28 28 27 27 26 25 25 27 28 29 30 31 31 33 34 36 37 38 36 34 30 28 27 27 27 28 29 29 29 28 26 24 21 18 15 12 10 9 7 6 8 9 7 9 10 13 15 15 13 14 16 17 17 16 15
26 28 29 30 33 36 38 35 35 37 37 37 36 36 36 35 34 34 33 32 32 32 32 33 33 32 32 32 32 32 31 31 30 30 30 31 31 30 29 28 27 26 26 25 24 24 24 25 25 27 28 29 30 32 33 33 34 35 35 32 29 26 24 24 25 26 27 27 27 27 25 24 22 20 18 15 12 10 9 8 7 7 8 8 6 7 9 11 13 15 15 13 13 14 14 15 15
26 28 30 30 34 35 37 37 35 36 37 37 37 36 36 36 35 35 34 32 32 33 34 34 34 33 33 33 33 33 32 33 32 32 31 31 29 28 27 26 24 23 24 24 23 24 24 25 26 27 28 30 31 31 32 32 32 30 27 24 22 21 22 23 24 25 25 24 22 21 20 19 18 17 15 13 11 9 8 7 7 7 8 7 5 6 7 8 10 12 14 14 12 11 11 12 14
25 26 28 28 32 34 36 37 36 36 36 36 37 36 36 36 36 36 35 34 34 34 34 35 35 34 34 34 33 33 33 33 33 32 31 29 27 26 25 23 22 21 22 22 23 24 26 27 28 28 29 29 29 30 30 29 26 22 19 18 19 20 21 22 22 21 19 18 18 18 18 19 18 17 15 12 10 9 8 7 7 7 8 6 5 6 5 5 8 9 11 12 12 11 11 11 12
26 27 28 29 32 34 35 36 36 36 36 36 35 35 36 36 36 36 36 35 35 35 35 36 36 35 35 35 34 34 34 33 32 30 28 26 24 23 22 21 20 20 21 22 24 25 26 27 27 27 27 27 27 26 24 20 17 16 16 17 18 19 19 18 16 15 15 15 16 18 19 20 20 18 16 14 12 10 8 7 7 7 7 6 4 5 3 3 6 7 8 10 11 12 12 11 10
26 27 28 31 33 33 34 35 34 35 35 35 34 34 34 34 35 35 35 35 34 34 35 35 35 35 35 35 34 34 33 32 30 27 25 24 22 21 20 20 20 21 22 23 24 25 25 25 25 25 24 23 21 18 15 13 13 14 15 16 16 15 13 12 12 12 14 15 18 20 21 22 21 20 19 18 16 14 11 9 8 7 7 7 4 3 3 3 5 6 6 8 10 11 11 11 9
25 27 27 29 34 34 33 33 33 33 33 33 32 32 32 32 32 32 32 32 31 31 32 32 32 33 33 33 32 31 30 29 27 24 23 22 21 20 20 20 20 21 22 23 24 24 23 23 22 20 18 16 13 11 10 11 12 13 14 13 12 10 10 10 11 13 15 17 20 21 22 23 22 22 23 23 21 18 15 12 10 9 8 9 6 3 2 3 3 5 6 5 7 9 9 10 9
21 26 28 27 32 35 34 34 33 33 32 31 30 30 29 29 28 28 28 27 28 28 28 29 29 30 30 30 29 28 27 25 24 22 21 20 19 19 20 20 21 22 23 23 22 21 20 18 16 13 11 9 8 8 9 10 11 12 10 9 8 9 10 11 12 14 16 19 20 22 23 24 24 25 26 26 25 23 20 16 13 10 9 10 9 6 3 3 3 4 6 4 6 7 7 8 9
18 22 25 23 27 33 34 34 33 32 31 31 30 29 28 27 26 25 25 24 25 25 25 26 26 26 27 26 25 24 23 22 21 20 19 18 19 20 21 22 22 22 20 19 18 16 14 12 9 8 7 7 7 8 9 10 10 8 7 8 9 9 10 11 13 16 18 19 20 22 23 24 26 26 27 28 28 27 25 21 18 14 11 10 10 9 7 6 5 5 6 5 7 6 4 5 7
19 20 21 18 23 29 32 33 33 32 31 31 30 28 27 26 25 24 23 22 22 22 22 23 23 23 23 22 21 20 19 18 18 18 18 18 20 21 22 21 20 18 16 14 12 9 8 6 6 5 5 5 6 7 8 8 7 7 8 8 8 9 10 12 15 17 18 19 20 22 24 25 27 28 28 29 30 30 29 28 25 22 18 14 12 11 9 9 7 6 6 6 7 6 4 3 4
18 18 18 17 21 25 29 31 31 31 31 30 29 28 27 26 25 23 22 21 20 19 19 20 21 20 20 19 19 18 17 17 17 18 19 20 20 20 18 16 14 12 10 8 6 5 4 4 4 3 3 4 6 7 6 6 7 8 8 8 9 10 11 14 16 17 18 19 20 23 25 26 28 27 27 28 29 30 30 30 29 28 25 22 17 14 12 10 9 8 6 5 6 5 4 4 4
16 15 13 14 19 23 26 28 29 30 30 29 28 28 27 25 24 23 22 20 19 18 18 18 19 19 18 18 17 17 17 18 18 18 19 18 17 15 13 11 10 8 6 4 4 3 3 3 3 2 2 3 4 5 6 7 8 8 8 9 10 11 13 16 17 17 18 19 22 24 26 26 25 24 25 26 28 28 28 30 30 29 28 26 23 19 16 13 11 9 7 5 4 3 3 4 4
14 14 14 14 21 24 25 26 27 27 26 27 27 26 26 24 23 22 21 20 19 18 17 18 18 18 18 17 17 17 18 17 17 16 15 13 11 10 9 8 7 6 4 4 3 3 2 2 2 1 2 4 6 7 8 8 8 8 9 10 11 13 15 17 17 17 18 20 22 24 24 23 21 21 23 24 25 26 27 29 29 29 30 29 26 24 22 20 15 11 8 5 3 3 3 3 4
14 14 14 16 24 25 24 24 24 24 23 24 24 24 24 23 22 22 21 19 17 17 16 17 17 17 17 16 16 16 15 14 12 11 9 8 7 7 7 6 6 5 5 4 3 2 2 2 1 2 5 7 8 8 8 8 9 10 10 12 13 14 17 18 18 18 18 20 22 23 22 21 20 20 22 23 25 26 26 26 27 30 31 30 30 29 28 26 21 17 14 9 6 5 6 6 7
14 16 11 15 24 25 23 23 22 21 20 21 21 22 22 21 21 20 19 17 15 14 14 15 16 15 14 13 13 12 11 9 9 8 7 7 7 6 6 5 5 5 4 4 3 3 3 2 4 7 9 9 9 8 9 9 10 11 12 13 14 16 18 19 19 18 19 20 21 21 21 20 20 21 22 23 25 26 25 24 25 29 30 30 31 30 28 25 23 22 19 14 9 6 6 7 8
8 16 16 17 24 24 21 20 19 18 17 17 17 18 18 18 18 17 16 14 13 12 12 14 14 13 11 9 8 8 8 8 8 7 7 7 6 6 5 5 4 4 3 3 3 4 4 6 9 10 10 9 9 9 10 11 12 12 13 14 15 17 19 19 19 19 19 19 20 21 21 21 21 22 22 23 24 23 23 23 23 25 26 28 29 28 26 26 25 24 22 19 14 9 7 7 8
4 9 17 19 22 22 19 18 18 17 15 14 14 15 15 15 15 15 15 13 11 10 10 11 10 8 7 6 6 7 8 9 9 8 7 7 6 5 5 4 3 3 3 4 4 5 8 11 12 11 9 9 10 11 11 12 12 13 13 14 15 17 18 18 18 19 19 20 21 22 22 21 21 22 22 23 22 20 21 23 23 22 23 24 25 25 26 27 26 24 23 22 21 17 12 8 8
12 4 7 13 18 18 16 15 15 15 14 11 10 13 14 14 15 15 15 12 9 8 7 6 6 5 6 7 8 8 9 10 9 8 7 6 6 5 3 3 3 3 4 6 7 9 12 13 11 10 10 11 12 12 12 12 13 13 13 13 14 16 17 17 18 19 19 20 21 22 23 22 21 22 23 23 21 19 20 24 25 23 22 22 23 23 25 26 26 25 25 26 25 23 21 17 11
15 10 6 6 10 13 14 13 12 11 11 9 10 13 14 15 15 13 12 10 8 6 4 5 6 7 8 8 9 9 10 10 9 8 7 6 5 4 3 3 4 5 7 8 10 13 14 12 10 10 11 12 12 12 12 13 13 13 13 12 13 15 16 17 18 19 19 20 21 22 23 22 22 23 24 23 21 19 19 21 23 21 21 22 21 21 22 25 26 26 27 27 27 26 25 22 19
17 13 10 8 7 7 9 10 10 9 8 8 10 12 15 15 14 12 10 9 7 6 6 7 7 8 9 9 8 8 9 9 8 7 7 6 5 4 4 5 6 8 10 12 14 14 12 11 10 11 12 12 11 12 12 13 13 12 13 13 13 14 16 17 18 19 19 20 21 22 22 22 22 22 23 21 19 18 18 19 20 20 21 21 20 20 21 24 25 25 27 27 27 27 26 24 22
17 15 11 9 7 6 6 9 10 8 7 8 8 11 13 14 13 12 11 9 8 7 7 7 8 8 8 7 6 6 7 7 7 7 7 7 7 7 7 7 9 11 13 15 14 12 11 10 11 11 12 11 11 11 12 12 12 12 12 13 14 15 16 17 18 19 19 19 20 21 21 22 22 21 21 19 18 18 18 18 19 21 21 20 19 18 18 20 22 23 24 25 26 25 25 24 24
15 14 12 10 7 6 4 6 8 8 7 8 9 10 11 12 12 12 11 11 9 8 8 7 8 7 6 6 5 5 7 8 9 9 9 9 9 9 10 11 13 15 14 13 12 10 10 10 11 11 10 10 10 10 11 12 12 12 12 13 14 15 16 17 17 18 19 19 19 20 20 21 22 22 20 18 16 17 17 17 19 23 23 20 16 14 15 16 20 22 22 22 23 24 24 24 24
13 13 12 9 7 5 4 4 6 8 8 9 10 10 11 11 11 11 12 12 10 9 8 8 8 6 5 4 4 6 9 11 11 11 12 12 13 14 15 15 15 14 12 11 11 10 10 10 10 10 9 9 9 9 11 12 12 11 12 13 14 15 16 16 17 17 18 19 19 19 19 20 21 21 20 18 16 16 17 18 19 21 23 22 17 14 15 16 19 21 20 20 21 22 22 22 23
12 12 11 9 6 5 5 6 6 8 9 10 10 10 10 10 10 11 12 12 11 10 9 9 8 6 4 4 6 8 11 13 14 15 16 17 17 17 16 15 13 12 11 11 10 10 10 10 10 8 8 8 8 8 9 10 11 11 11 12 13 14 15 16 16 17 18 19 19 19 19 19 19 19 18 18 17 16 18 19 19 20 22 23 21 18 18 18 18 19 19 19 20 21 22 22 23
9 9 9 8 7 5 4 5 6 8 9 10 10 10 10 10 11 11 11 11 10 11 11 11 9 6 4 5 8 10 13 17 19 19 19 18 17 16 15 14 13 12 11 11 10 10 9 9 8 6 6 7 7 7 8 8 10 10 11 11 13 13 14 15 16 17 18 18 19 19 19 19 19 18 17 16 15 16 17 18 18 19 21 22 22 22 21 20 18 18 19 20 21 21 22 23 23
6 6 6 6 7 6 5 5 5 6 8 9 9 9 10 10 11 11 11 11 11 12 12 11 9 7 6 7 10 13 17 20 20 19 18 17 16 15 15 14 13 12 11 11 10 9 8 7 6 5 5 6 6 7 7 7 8 10 10 11 13 14 15 15 16 17 17 18 19 19 19 20 20 20 18 17 16 14 15 16 15 17 20 21 22 23 22 20 18 17 18 19 21 22 22 23 24
2 4 4 4 5 6 5 5 5 6 8 9 10 10 10 10 11 11 11 12 12 13 12 11 10 9 9 10 13 16 17 18 17 17 16 16 16 15 15 14 13 12 10 10 9 8 7 6 5 5 5 6 6 7 7 7 8 9 10 11 12 14 15 16 16 17 18 18 19 20 20 19 21 21 20 19 18 16 15 14 14 15 18 19 20 22 22 21 19 18 18 19 20 21 22 23 23
3 2 3 3 1 4 5 4 5 7 8 9 10 10 10 10 11 12 13 14 14 14 12 11 11 12 13 15 16 16 16 15 14 14 15 15 15 15 15 14 12 11 10 10 9 8 7 6 5 5 5 6 6 6 6 6 7 8 10 11 12 14 15 16 17 18 18 19 19 19 20 19 20 21 21 21 20 18 16 16 15 14 14 16 18 20 21 22 21 20 20 20 20 20 21 22 23
7 5 3 3 3 1 4 4 5 6 7 8 9 10 10 10 11 12 13 14 15 15 14 13 13 14 16 17 15 14 12 11 11 12 14 15 15 15 14 12 11 10 10 10 9 8 7 6 4 4 5 5 5 5 5 6 7 8 9 11 13 14 15 16 18 19 19 19 20 19 20 20 20 21 22 22 22 20 18 17 16 14 13 15 17 19 20 21 21 21 20 20 20 21 21 20 21
11 9 6 5 4 3 4 5 6 6 6 7 7 8 8 10 11 12 13 14 15 16 15 15 16 16 16 15 13 11 8 6 7 10 13 14 15 14 12 10 10 10 10 9 9 8 6 5 4 3 3 3 3 3 4 5 7 8 10 12 13 14 16 17 18 19 20 20 20 20 20 20 21 21 22 22 23 22 20 19 17 15 14 14 16 17 18 20 21 21 20 20 20 21 21 20 20
15 13 10 9 7 6 7 6 7 7 7 6 7 7 7 8 10 12 13 14 14 15 15 16 17 17 15 13 11 9 7 6 7 9 11 12 13 12 10 9 10 10 9 8 7 6 6 5 4 3 2 2 2 3 4 6 8 9 11 13 14 16 17 18 19 20 20 20 20 20 20 20 21 22 22 22 23 23 22 20 18 16 14 14 15 17 18 19 20 21 21 20 20 20 20 20 20
19 17 15 13 11 9 9 7 7 8 8 8 7 8 7 7 9 11 13 14 15 14 15 16 16 15 14 12 11 9 8 7 8 10 10 11 12 11 10 10 9 9 8 7 6 6 5 4 3 2 1 0 2 4 5 7 9 11 13 14 16 17 18 20 20 21 21 20 20 20 21 21 21 22 22 23 23 23 22 21 19 18 16 16 16 17 18 19 20 20 20 20 19 19 20 22 23
23 21 19 17 14 12 11 10 9 9 9 9 9 9 8 6 7 9 11 13 15 15 15 15 15 14 13 13 12 11 9 9 9 10 11 11 11 11 10 9 8 8 8 7 7 6 5 4 2 1 1 2 4 6 7 9 11 13 14 15 17 18 19 20 21 21 21 21 21 22 22 23 23 22 22 23 23 23 22 22 21 20 20 19 19 18 18 19 20 21 21 19 18 20 22 24 25
26 25 23 21 18 16 16 13 11 10 10 10 11 12 11 7 7 9 11 13 14 15 15 14 14 14 13 13 12 11 11 10 9 10 11 12 11 11 9 8 7 7 7 7 7 5 4 3 2 2 3 4 6 8 10 11 12 14 15 16 18 19 20 21 21 21 21 22 22 23 24 24 24 24 23 23 23 23 23 23 23 23 23 22 22 21 21 21 22 23 23 21 19 21 24 25 26
29 28 27 25 21 20 19 15 13 13 12 12 12 14 14 11 9 10 12 13 14 15 15 15 14 14 14 13 13 12 12 10 9 10 11 11 12 11 10 9 8 7 7 6 5 4 3 2 2 3 5 6 8 10 11 13 14 15 16 18 19 19 20 20 21 21 22 23 24 25 25 26 25 25 24 24 24 24 25 25 26 26 26 25 23 23 22 22 24 25 24 23 21 22 26 27 28
32 30 30 29 26 23 21 19 18 17 15 15 14 15 16 14 12 12 13 14 15 15 15 15 15 14 14 13 13 13 13 12 11 11 11 11 12 12 11 10 9 8 8 7 5 4 4 3 4 5 7 8 10 12 13 14 15 17 18 19 19 20 20 20 21 22 23 24 25 26 26 26 26 26 25 26 26 26 26 27 28 28 28 28 26 23 22 22 24 25 26 25 23 24 27 29 30
34 33 33 33 30 27 24 23 23 21 19 17 16 16 17 16 15 14 14 15 15 16 15 15 15 14 13 13 13 14 14 13 13 12 12 12 12 12 11 11 10 10 9 7 7 6 6 6 6 7 9 10 12 13 14 16 17 18 19 20 20 20 20 20 22 23 24 25 26 26 26 26 26 26 27 27 27 28 28 28 29 29 29 29 27 25 23 22 23 25 27 27 25 25 27 30 31
36 37 37 35 33 31 28 28 27 25 23 20 18 18 17 17 17 16 16 17 17 16 16 15 14 14 13 13 14 14 15 15 15 15 15 14 14 13 13 12 12 11 10 9 8 8 8 8 9 10 11 12 13 14 16 17 18 19 20 20 20 21 21 22 23 24 25 26 26 27 27 27 27 27 28 28 28 28 28 29 29 29 29 29 28 26 24 23 24 26 28 29 27 26 28 31 32
40 42 40 37 35 33 31 32 31 29 26 22 20 20 19 19 19 18 18 18 18 18 17 16 16 16 15 14 15 15 16 16 16 17 17 16 15 14 14 13 13 12 11 11 10 10 10 11 12 12 14 15 15 16 17 18 19 19 20 21 22 22 22 23 24 25 26 26 27 28 28 28 28 28 28 28 28 28 29 29 29 30 30 29 28 26 25 25 26 27 29 29 28 28 30 33 34
45 46 42 37 35 34 35 34 34 32 27 24 22 22 22 22 21 19 20 20 20 19 18 18 18 19 19 19 18 17 17 17 18 18 18 18 17 16 15 15 14 14 13 13 13 12 13 13 14 15 16 17 18 18 19 19 19 20 21 22 23 23 24 25 25 26 27 28 28 28 29 29 29 29 29 29 30 30 31 31 31 31 31 31 30 28 27 26 27 28 29 29 29 30 32 35 35
49 49 43 39 37 37 36 35 36 31 25 25 26 26 26 26 24 22 22 23 21 19 19 19 20 21 21 21 21 19 18 19 20 20 20 20 19 18 18 17 17 16 15 15 15 15 15 15 16 17 18 19 20 20 20 20 21 21 22 23 24 25 25 26 26 27 28 28 29 29 30 30 30 30 31 31 33 33 34 34 33 34 34 33 33 31 29 28 28 29 29 30 31 33 35 36 36
53 51 45 42 42 39 36 36 36 29 25 27 28 29 30 29 27 26 26 25 22 21 21 21 22 23 22 21 22 21 20 22 23 22 22 21 20 20 19 19 18 18 17 17 17 17 17 17 18 19 20 20 21 21 21 22 22 23 23 24 26 26 27 27 27 28 29 29 30 30 31 31 32 32 33 34 35 36 37 37 37 37 37 36 35 33 32 30 29 30 31 33 34 35 36 36 36
57 54 48 47 47 42 37 36 34 30 30 32 33 34 33 32 32 30 29 28 25 24 23 22 23 24 23 23 23 23 22 22 24 24 23 22 21 21 21 20 20 19 19 19 19 18 19 19 20 20 21 22 22 23 23 23 24 24 24 25 27 27 28 28 29 29 30 30 31 31 32 33 34 34 35 36 37 38 39 39 39 39 38 37 36 36 34 32 31 32 33 35 36 37 37 37 37
60 58 53 52 51 45 39 36 35 35 35 36 39 38 34 34 36 33 31 30 28 27 26 25 25 25 24 24 24 25 24 23 25 25 24 23 23 22 22 22 22 21 21 21 21 21 21 21 21 22 22 23 24 25 25 25 25 25 26 27 28 29 29 29 29 30 31 31 32 33 34 35 35 36 37 38 40 41 41 41 41 40 38 36 37 37 36 35 34 34 35 37 39 40 39 38 38
64 63 61 58 55 49 43 40 39 41 41 42 44 40 35 37 40 36 35 33 31 30 28 27 28 28 26 24 25 27 26 25 25 25 25 25 25 24 25 24 24 24 24 24 23 23 23 23 23 23 24 25 26 26 27 27 27 27 27 28 29 30 30 30 30 31 32 32 33 34 35 36 37 38 40 41 42 42 42 41 41 40 38 37 38 38 38 38 38 37 37 38 40 42 42 40 39
67 70 67 60 56 52 48 46 46 47 46 45 45 41 38 41 43 41 38 36 34 34 31 30 32 32 29 27 27 29 27 26 27 27 27 27 27 27 28 26 26 26 26 26 26 25 25 25 25 25 26 27 27 28 28 29 29 29 29 30 31 32 32 32 32 32 33 34 35 36 37 38 39 41 43 44 43 43 43 43 42 42 42 41 41 41 42 42 41 41 40 40 41 43 44 42 42
72 75 68 59 58 58 55 52 51 51 48 44 44 44 42 43 46 44 40 39 38 35 32 33 35 35 32 30 31 31 29 28 29 30 30 30 30 30 30 29 28 29 28 27 27 27 27 27 27 27 28 28 29 29 30 30 30 31 31 32 33 33 33 33 33 34 35 36 37 38 39 40 42 43 45 45 44 45 46 45 44 44 44 45 45 45 46 45 43 43 42 42 42 44 46 45 44
76 77 69 64 66 65 60 57 55 53 48 45 46 47 45 46 49 47 43 41 38 34 34 37 38 37 35 35 34 32 30 31 32 32 32 32 32 32 31 31 31 31 31 29 29 29 29 29 29 29 29 30 30 31 31 32 32 32 33 34 34 35 35 35 35 36 37 39 39 39 40 42 43 45 46 46 46 47 48 46 45 45 45 46 47 46 46 46 44 43 42 43 44 45 47 47 45
78 75 71 72 73 69 63 59 57 55 50 48 49 49 48 48 50 49 46 43 39 35 38 42 41 39 39 38 36 33 32 34 35 35 35 35 34 33 32 33 33 33 33 32 32 31 31 30 30 31 31 31 32 32 33 33 34 34 34 35 36 36 36 37 38 39 40 41 41 41 42 43 45 47 47 48 48 48 47 47 46 45 46 47 47 45 43 44 44 43 42 42 44 46 48 48 45
79 77 76 77 76 71 67 64 62 59 55 52 51 50 49 49 52 53 50 48 43 38 42 46 43 41 42 40 39 37 35 36 37 37 37 37 36 35 34 35 35 35 35 34 34 33 32 32 32 32 33 33 34 34 35 35 35 35 36 36 37 38 38 39 40 41 42 43 43 43 44 45 47 48 49 50 50 49 48 46 46 46 47 47 47 46 44 42 42 44 43 41 42 46 47 46 44
81 80 79 79 77 74 72 70 67 63 58 56 54 52 51 52 55 54 52 53 47 41 45 49 46 45 45 43 42 41 38 39 40 39 39 39 38 37 36 36 37 37 37 36 36 35 34 34 34 35 35 35 35 36 37 36 36 37 37 38 38 39 40 41 42 43 44 44 45 45 46 47 48 50 51 51 50 49 48 46 45 46 47 47 47 47 46 43 42 43 43 42 43 45 46 46 45
85 84 82 80 79 78 79 75 69 64 61 60 57 54 54 56 56 55 56 57 51 45 47 50 50 48 47 45 45 43 42 43 43 41 41 40 40 39 38 38 39 39 38 38 37 37 37 37 37 37 37 37 37 38 39 38 38 39 39 39 40 41 42 43 44 44 45 46 47 47 48 49 50 51 52 52 51 50 48 46 46 45 45 46 46 47 46 45 44 44 43 44 45 45 46 47 48
Wind_Direction
202 200 197 197 199 200 202 206 213 218 225 227 225 226 229 231 234 240 243 246 250 257 263 265 267 267 268 267 270 277 277 276 268 260 256 252 253 257 259 263 266 267 266 265 266 271 275 276 278 280 282 283 283 285 287 290 291 288 291 295 298 302 309 311 311 311 312 313 312 312 313 315 316 316 318 321 322 322 322 324 327 332 342 349 351 1 7 11 16 24 33 36 43 57 76 88 95
204 202 199 201 203 204 206 208 212 216 225 232 231 228 230 234 235 240 243 246 249 253 258 262 264 264 266 268 271 272 271 270 270 268 263 258 256 256 258 261 263 264 265 266 268 270 273 276 279 283 284 285 286 288 290 289 288 289 291 292 293 299 304 305 306 306 308 309 310 312 315 316 315 315 319 321 320 320 321 323 328 336 351 354 357 6 12 18 23 29 37 43 50 59 74 85 90
204 203 201 205 208 210 212 211 212 212 215 226 229 229 231 234 237 241 244 245 248 250 254 258 260 263 264 265 267 268 268 267 268 268 266 263 262 263 263 263 263 262 263 265 268 271 274 277 280 284 287 289 290 290 291 289 288 288 289 289 290 294 298 301 302 304 306 309 311 314 315 315 315 317 320 321 319 319 320 323 329 341 356 356 1 11 18 24 27 35 43 48 55 61 70 80 82
204 202 203 210 214 218 218 215 215 213 212 218 222 224 228 232 235 239 245 246 248 251 253 256 257 259 261 263 263 264 266 267 267 268 268 267 268 268 268 266 265 263 265 267 268 272 275 278 282 287 289 291 293 293 294 293 290 289 290 291 294 296 298 300 302 305 308 311 314 315 315 315 317 319 321 320 318 319 320 323 331 344 356 358 8 18 26 30 32 41 47 50 56 59 64 72 73
205 202 203 212 218 223 223 220 219 218 218 219 222 222 225 231 233 238 243 246 249 252 254 256 257 258 261 262 262 264 266 268 268 267 268 269 270 271 271 270 268 268 271 271 272 274 277 280 284 287 289 290 293 294 294 292 290 291 293 295 297 297 299 302 306 309 311 314 316 316 316 316 318 320 320 318 318 319 321 324 333 343 353 1 14 26 32 34 38 47 52 50 52 56 59 61 64
209 207 205 213 220 225 227 226 224 223 223 224 227 228 229 232 235 240 243 246 249 252 254 256 257 258 260 262 263 265 266 268 268 268 267 268 270 271 272 272 273 274 275 274 276 277 280 283 282 284 287 288 291 292 292 291 291 292 294 297 298 299 303 306 310 312 315 317 317 316 316 317 318 319 319 318 320 323 326 328 334 340 354 5 22 35 36 38 41 47 54 51 48 49 52 55 59
211 210 209 216 221 224 226 229 227 227 227 227 231 232 234 237 239 243 245 247 248 250 253 255 257 257 258 260 263 264 265 266 266 265 266 268 270 271 273 275 276 278 278 278 279 280 282 284 283 284 287 288 290 291 291 292 293 295 297 299 301 304 308 311 314 316 318 318 317 317 317 318 320 321 320 321 326 331 334 336 339 346 358 8 32 45 40 40 43 45 46 50 49 41 42 49 57
208 210 213 220 225 227 227 229 229 229 230 229 232 234 236 239 241 244 245 246 248 250 252 254 256 257 258 259 261 263 264 264 264 264 267 269 271 272 274 276 278 279 279 280 281 282 284 286 287 288 289 290 291 292 294 295 296 298 300 302 305 309 313 316 319 320 320 319 318 319 322 326 328 327 326 328 332 335 336 340 348 357 2 14 45 53 49 41 41 45 40 42 48 39 35 40 48
206 210 212 221 225 227 227 229 231 232 233 233 235 236 238 240 242 244 244 245 247 249 251 253 255 257 258 259 260 262 263 264 265 266 269 271 272 273 275 277 277 277 279 281 283 284 286 288 289 291 291 292 293 294 296 297 298 300 304 308 312 316 319 322 322 322 322 323 326 332 339 343 344 341 339 337 334 332 333 343 354 2 8 23 55 57 59 45 38 44 42 43 46 36 28 32 38
203 210 214 221 223 225 227 228 232 233 234 236 237 238 239 241 242 244 245 246 247 249 251 253 255 256 258 259 260 261 262 264 265 267 269 271 273 274 275 276 276 277 279 281 284 286 288 289 290 291 291 292 294 296 297 299 302 306 311 315 318 322 324 325 325 327 331 337 345 353 359 3 2 359 355 349 342 338 339 349 360 9 18 29 55 52 58 52 42 40 41 44 42 34 30 34 36
204 211 218 226 224 225 228 228 231 233 234 236 237 238 239 241 242 244 245 246 248 249 251 253 255 256 257 258 259 261 262 264 265 267 268 270 272 273 274 275 276 276 278 280 281 283 284 285 287 289 291 293 295 297 300 304 309 313 316 320 324 327 328 330 336 343 351 360 8 13 16 18 18 15 11 5 2 358 357 3 12 19 25 30 43 45 46 36 37 40 36 37 35 33 35 38 41
212 216 221 228 226 225 227 227 229 231 233 235 236 237 238 239 241 243 244 246 248 249 251 253 255 256 258 258 259 261 262 263 264 265 266 266 267 268 270 273 274 275 276 276 277 279 280 283 286 290 292 294 297 300 305 310 312 315 321 326 330 333 340 350 359 7 15 22 24 24 27 29 28 25 23 21 20 19 18 19 24 29 26 23 26 34 20 350 18 33 22 23 28 27 32 37 40
218 224 225 231 229 227 228 227 229 229 230 233 235 235 236 238 239 241 243 245 247 249 251 253 255 257 258 258 258 259 259 260 261 261 261 261 262 264 267 269 271 272 273 275 277 280 283 287 289 291 295 298 301 306 309 311 316 323 329 335 344 356 9 17 22 28 30 28 26 30 35 36 35 33 32 31 30 29 29 31 31 29 20 15 12 16 342 318 349 20 13 6 18 17 20 28 30
218 230 232 236 232 230 231 229 230 230 229 231 232 234 234 236 237 239 241 244 247 248 251 253 254 256 257 257 256 256 255 256 256 256 256 257 259 261 264 266 268 270 273 276 279 283 286 289 290 293 301 305 307 309 311 319 328 336 345 1 18 28 30 34 36 33 28 26 31 38 40 39 37 35 35 36 36 34 33 33 32 27 17 7 5 6 343 318 324 350 1 351 357 7 8 16 20
211 230 235 241 238 233 234 232 232 231 231 230 231 233 234 235 237 239 242 245 248 250 252 254 254 254 254 254 253 252 251 250 250 250 251 253 256 260 263 266 268 271 274 277 280 282 284 287 289 293 302 307 307 315 327 337 347 1 25 37 39 37 38 38 32 26 25 30 37 41 39 36 33 33 36 39 40 40 38 35 32 26 15 1 354 354 349 341 341 339 339 339 337 341 341 360 12
210 224 229 237 241 237 236 235 234 233 232 232 232 233 234 236 237 239 241 243 247 250 252 253 253 251 250 249 247 246 246 246 247 249 251 253 257 260 262 266 269 272 272 272 272 275 279 285 287 290 303 312 317 335 350 2 24 45 50 47 40 37 36 30 25 26 31 37 41 38 34 31 31 33 38 41 42 43 41 39 35 31 25 15 0 351 348 344 345 349 341 339 334 326 320 327 358
211 218 226 236 242 238 236 236 235 234 233 233 233 233 234 235 236 237 239 241 243 247 250 250 250 248 246 244 244 245 244 246 249 251 254 256 257 258 261 263 264 263 260 257 257 263 273 275 278 295 315 327 342 4 27 50 61 59 52 43 37 34 30 27 28 34 39 42 39 33 32 32 33 34 38 41 40 40 39 38 35 33 32 26 21 10 358 348 343 345 342 341 342 341 346 339 340
209 212 220 238 246 239 235 235 234 234 234 234 234 234 234 235 236 237 237 239 240 240 242 243 245 245 243 242 243 244 246 247 250 252 253 253 253 253 253 250 245 240 235 230 236 244 255 259 264 299 335 2 26 58 77 75 65 56 48 41 37 34 30 32 38 42 43 40 35 33 36 39 38 36 38 38 36 34 32 34 33 33 33 31 30 27 19 12 359 345 339 340 343 351 13 1 332
200 209 212 232 246 241 235 234 233 232 234 234 235 236 235 235 235 236 235 235 236 236 236 240 242 242 242 241 242 244 246 247 248 248 247 246 244 241 233 225 217 210 204 203 214 216 218 244 258 314 44 72 87 93 85 71 63 55 49 46 42 37 37 41 45 44 41 36 33 35 40 43 40 35 33 31 28 26 27 32 35 36 36 35 35 35 32 26 21 11 359 354 354 355 345 325 297
191 205 217 237 242 239 235 232 231 229 230 232 233 234 233 234 234 234 234 233 235 237 239 243 244 243 242 242 242 242 241 241 239 236 233 230 225 219 210 203 193 189 188 186 189 193 197 213 194 96 98 105 104 92 79 70 65 59 55 51 45 43 44 46 45 43 38 34 34 37 40 39 34 27 23 22 22 25 29 33 38 40 37 35 37 36 32 26 24 20 11 2 1 355 330 311 293
195 200 214 243 236 231 232 229 228 226 227 230 230 230 231 232 233 233 233 233 236 239 244 247 245 242 239 238 237 233 229 226 225 219 216 213 211 206 197 194 185 180 179 177 178 183 178 157 118 112 114 111 99 87 81 75 69 64 59 54 50 50 50 49 45 42 39 36 35 35 34 31 27 23 19 18 19 26 37 41 43 43 39 38 39 36 32 29 26 19 12 5 353 325 309 311 297
196 201 207 233 231 224 224 223 221 220 220 225 227 228 227 228 229 229 229 227 231 236 239 239 235 230 226 226 226 222 215 212 213 211 209 206 206 202 195 189 179 173 174 173 176 171 154 132 122 120 116 106 95 90 86 77 70 66 62 59 58 56 52 49 46 42 40 37 34 31 29 27 24 23 21 19 19 27 40 47 49 47 43 41 39 37 36 37 36 29 21 17 10 349 319 301 284
62 197 208 222 223 217 216 215 211 208 205 210 220 223 221 220 219 218 216 210 209 214 217 220 219 219 215 215 218 216 213 211 210 208 205 205 206 205 200 190 176 176 171 164 163 153 138 128 125 123 114 103 98 93 86 76 70 68 66 66 64 56 49 47 45 42 39 35 32 30 27 27 26 26 24 21 23 32 41 46 50 47 42 39 37 37 39 40 41 40 35 31 33 32 19 342 302
48 73 188 205 209 208 209 207 203 198 192 195 216 223 214 209 206 204 200 189 184 191 196 206 213 217 216 215 216 217 216 213 210 208 207 207 208 206 202 196 178 170 162 157 152 142 133 129 128 122 112 106 100 91 81 75 70 68 67 68 61 50 46 46 44 41 38 35 32 29 29 30 31 29 27 27 31 43 50 48 46 40 36 35 35 38 44 46 45 47 46 42 42 44 39 24 9
49 58 87 145 183 198 202 198 195 193 190 195 220 228 215 204 197 190 183 171 168 178 193 212 220 222 218 216 215 218 220 219 216 211 209 205 199 195 188 176 162 157 157 152 144 137 132 130 126 119 113 106 97 86 79 73 68 66 65 62 54 46 46 46 43 41 38 35 32 30 30 32 33 31 31 34 40 50 55 51 45 37 31 33 36 40 45 49 50 50 50 47 46 45 42 34 29
48 56 71 90 125 166 182 177 175 181 188 198 216 226 218 204 192 181 172 164 163 179 203 213 215 215 214 212 214 221 226 223 216 205 197 186 168 155 152 154 154 154 151 145 139 135 133 131 124 118 112 102 92 84 77 68 64 64 61 54 49 46 47 46 44 42 39 36 33 30 30 31 31 30 31 36 41 46 47 45 44 36 29 32 39 43 44 46 47 48 48 48 47 46 45 40 37
45 52 66 82 99 119 146 148 147 157 178 192 202 217 216 203 191 181 171 165 167 180 196 204 204 202 204 207 213 228 225 209 194 180 165 152 140 138 144 149 149 147 143 139 137 134 131 127 122 119 108 96 88 81 69 61 61 62 58 51 48 47 45 45 43 41 39 36 33 31 30 29 29 29 31 36 41 42 41 39 39 34 29 31 38 40 39 40 40 39 38 40 41 42 43 43 42
42 48 58 78 99 115 130 134 137 149 171 184 188 200 206 199 189 181 173 166 168 178 188 198 196 189 194 200 210 222 204 176 159 150 140 134 132 136 139 140 140 139 138 137 136 134 130 125 122 116 102 91 86 74 61 57 60 60 55 49 48 46 44 42 39 38 37 35 33 31 29 28 28 29 30 35 41 40 38 34 32 32 29 28 31 29 25 29 33 30 26 28 32 34 36 38 40
32 47 54 67 94 126 149 155 150 154 165 175 176 185 193 190 183 181 176 167 167 175 181 184 178 172 183 189 195 199 176 152 141 136 131 129 129 130 132 133 134 135 135 134 133 133 133 130 126 111 92 86 80 66 57 57 59 58 53 48 46 43 40 36 34 33 33 33 32 30 29 28 28 29 32 36 40 38 35 31 28 28 27 25 26 23 15 16 21 20 18 22 26 28 30 31 34
15 38 52 60 75 112 160 176 170 160 165 173 173 179 189 185 181 185 181 168 167 173 172 170 161 154 166 179 184 181 160 142 134 131 128 127 127 128 130 132 134 135 133 131 129 131 134 133 126 105 85 77 68 57 56 57 55 54 50 46 43 38 35 31 29 28 28 29 29 28 27 26 26 27 30 34 38 38 36 33 29 27 27 25 25 24 15 11 12 12 15 20 23 25 25 25 27
4 20 46 58 67 84 120 154 173 173 170 173 173 176 187 186 183 186 179 167 166 169 166 160 148 140 152 179 180 168 149 138 132 131 130 130 131 133 134 135 135 135 132 130 130 133 136 133 123 97 74 65 57 52 56 57 51 49 47 41 36 32 29 27 25 24 24 24 24 25 22 21 22 21 22 25 29 31 30 30 29 30 29 26 26 26 23 20 18 16 16 19 21 22 22 23 25
4 360 25 52 66 71 78 100 137 167 170 169 170 175 184 186 183 178 168 160 162 165 160 149 139 136 151 172 170 156 144 137 134 133 134 134 135 136 136 137 136 135 133 133 135 137 137 133 121 91 71 59 54 56 60 58 50 46 41 34 28 25 23 22 21 21 20 19 19 19 17 16 15 14 15 14 14 12 13 15 21 28 28 26 26 26 26 26 23 21 18 18 19 20 21 23 26
356 343 350 25 66 75 76 88 112 138 156 161 161 167 175 179 176 167 157 154 156 158 151 139 135 138 150 161 158 149 141 136 134 134 136 137 138 138 137 137 136 136 136 136 138 139 137 132 120 98 76 65 62 65 67 59 48 41 33 26 21 18 16 16 16 16 16 16 15 14 13 11 8 8 10 9 7 2 357 354 359 15 19 19 21 19 19 20 18 17 16 15 15 14 15 17 20
250 283 322 325 19 88 91 97 115 133 145 148 149 151 154 158 159 156 155 153 152 149 140 134 137 142 148 154 152 147 142 138 135 137 140 141 142 141 140 139 139 140 142 142 141 140 138 133 123 102 82 73 71 71 67 57 43 33 23 17 13 10 10 10 10 10 11 11 11 10 10 8 4 4 5 5 3 359 355 347 343 350 356 360 7 11 11 11 10 11 11 10 8 6 8 10 12
251 236 238 270 273 181 132 127 127 138 148 146 143 144 142 140 138 144 153 155 150 144 138 137 141 145 149 152 154 153 150 147 146 146 147 148 148 147 146 146 148 150 149 148 146 145 144 140 128 106 87 78 76 70 60 46 32 22 15 9 6 4 3 4 5 5 6 7 7 5 5 3 1 360 360 360 360 357 353 348 341 333 330 340 352 358 1 3 3 4 4 5 3 1 3 7 11
253 245 234 237 246 243 217 180 153 151 161 160 155 150 146 139 133 136 146 153 151 146 142 142 145 149 153 156 159 160 160 161 160 158 156 156 156 156 156 156 156 156 155 153 151 149 147 143 135 118 101 85 70 55 35 23 15 9 5 1 359 358 358 359 360 360 1 1 2 1 360 358 356 356 355 355 356 355 352 346 341 333 325 330 340 346 350 353 354 354 355 356 356 355 358 3 7
251 249 243 236 232 232 236 216 182 171 172 176 174 165 155 147 140 138 143 150 154 153 149 148 150 154 159 163 168 172 173 172 172 169 166 164 165 165 164 162 160 160 157 157 155 152 148 144 139 130 114 94 44 17 6 2 1 358 355 354 353 353 354 355 355 355 356 356 356 356 356 354 351 351 351 351 351 353 352 347 341 335 329 329 334 338 343 346 347 346 345 345 347 349 352 355 357
248 248 245 239 233 230 235 232 214 195 183 183 188 182 169 160 155 148 147 152 157 162 162 160 160 164 169 174 180 188 192 189 183 179 178 176 176 175 170 165 164 164 163 160 157 156 153 152 149 149 151 355 347 348 349 350 350 350 349 348 348 349 350 351 351 351 351 352 352 351 351 350 347 346 346 347 347 348 350 348 343 338 333 330 331 332 337 343 344 342 340 339 341 345 346 345 346
246 247 246 242 236 234 233 229 229 221 199 188 190 195 189 177 175 166 158 159 161 167 173 174 175 178 184 189 191 196 201 200 193 188 188 188 186 184 178 175 175 172 170 167 164 164 165 170 181 210 276 315 327 336 340 341 343 343 343 343 343 344 345 346 347 347 347 348 347 346 345 345 344 343 343 343 343 344 345 346 343 338 333 329 328 327 328 334 339 341 338 336 338 341 342 340 339
246 246 246 243 237 235 234 227 227 232 221 203 193 198 206 204 197 186 174 171 169 170 176 180 182 185 190 193 194 194 194 195 197 197 196 194 192 191 192 195 195 188 183 178 175 175 180 193 215 262 294 314 324 330 333 334 336 336 337 338 339 340 342 343 344 344 344 344 343 342 341 342 342 341 340 339 339 340 341 341 341 338 334 329 325 322 320 322 327 333 334 331 330 334 336 336 335
245 244 244 243 238 236 237 233 228 229 228 221 207 201 211 219 212 200 190 183 179 176 177 181 184 186 186 187 188 188 190 193 199 203 202 201 200 199 205 209 208 206 201 195 195 198 209 230 257 290 306 314 320 325 327 328 329 331 332 334 336 338 339 340 341 341 341 340 340 340 340 340 340 339 338 337 336 337 338 339 339 339 337 334 328 321 317 314 317 323 329 328 324 327 331 332 331
245 244 243 243 239 236 237 237 233 229 226 227 223 211 212 217 214 207 201 194 190 187 185 186 187 186 186 186 187 189 193 200 205 207 207 207 207 209 213 214 214 215 214 213 219 226 240 262 279 293 303 309 315 319 321 323 325 326 328 331 333 335 337 338 338 337 337 337 338 338 339 338 338 337 337 336 335 336 337 337 338 338 338 337 334 326 317 311 310 315 321 324 321 322 327 330 328
245 244 243 242 240 237 236 236 235 231 227 225 226 225 221 219 215 210 207 203 202 199 197 195 192 192 194 194 196 200 203 207 210 211 212 213 215 217 217 218 220 221 225 231 236 245 256 269 280 290 298 304 310 314 316 319 322 325 328 330 332 334 335 334 334 333 334 335 336 336 337 337 336 336 336 336 336 336 336 337 337 336 335 334 333 328 320 310 306 309 315 318 317 317 322 326 327
242 242 242 241 240 238 236 236 236 233 231 227 225 230 230 227 222 216 213 211 209 208 206 204 200 199 205 209 210 213 213 213 215 216 218 221 221 221 220 219 222 227 233 241 247 255 264 272 281 290 296 302 306 309 314 318 321 325 329 331 331 331 332 332 331 331 332 333 334 335 335 336 336 336 335 335 335 335 335 334 334 333 333 332 330 327 320 311 306 307 311 313 313 313 317 322 323
240 241 240 239 239 239 237 238 238 235 233 231 229 233 234 232 230 224 221 218 214 213 211 210 209 206 207 214 221 225 224 223 223 225 225 226 225 223 222 223 227 233 238 244 251 258 266 275 283 290 296 300 304 308 312 317 320 325 328 330 329 328 329 329 329 329 330 331 332 334 335 335 335 335 334 333 332 332 331 331 330 330 330 329 326 323 319 313 308 308 310 312 312 311 313 317 320
240 241 240 240 240 239 238 239 241 239 235 233 234 236 236 235 234 230 228 226 220 216 216 214 213 212 209 209 217 228 235 232 230 231 229 227 225 224 226 230 234 238 242 247 254 261 269 277 285 291 296 300 304 308 311 315 319 323 326 327 326 325 326 326 327 327 328 330 332 333 334 334 333 332 330 329 328 328 328 328 328 327 326 325 322 320 317 313 309 309 310 311 310 310 311 314 317
241 242 241 242 241 239 240 241 243 243 239 235 235 236 237 236 235 234 232 232 226 219 219 218 215 218 218 212 210 217 233 239 234 232 232 230 229 229 231 235 239 242 247 252 258 266 273 280 287 292 297 301 304 307 310 314 318 321 323 324 323 323 323 324 325 327 328 329 331 332 332 331 330 328 327 327 327 326 326 327 326 325 324 323 321 318 315 312 309 308 309 309 309 308 309 311 314
242 242 241 241 241 240 240 242 246 248 243 238 236 235 238 238 236 235 235 234 231 225 221 220 219 221 221 219 214 212 222 236 239 239 241 241 240 240 240 241 244 247 251 256 262 269 276 282 288 293 297 300 303 306 309 312 315 318 320 321 321 321 321 323 324 326 328 329 330 330 328 327 326 326 326 326 326 325 325 325 325 325 323 322 320 318 315 312 310 308 308 307 306 306 307 309 311
241 241 240 241 242 240 239 242 247 248 243 240 239 236 236 239 239 237 237 238 235 232 227 224 225 226 224 225 223 218 218 231 245 250 250 250 252 253 253 253 254 256 258 261 266 272 277 282 288 293 296 300 302 304 307 310 313 315 317 319 319 319 321 322 323 325 327 329 328 326 324 324 324 324 324 325 325 324 324 324 324 324 324 322 321 320 317 313 311 310 309 308 308 308 309 310 310
241 241 240 240 242 239 238 240 244 244 240 238 240 238 236 240 243 240 239 239 237 236 234 232 232 232 230 230 229 226 223 229 244 253 253 253 255 257 260 262 264 267 268 269 272 276 279 283 287 292 295 298 301 303 305 308 310 313 315 317 317 318 320 321 322 324 326 326 324 322 322 322 322 323 324 324 325 325 324 324 323 324 323 322 321 321 319 315 312 311 311 310 310 311 310 309 308
239 240 238 237 238 238 236 236 237 237 234 233 237 239 237 239 243 241 239 240 239 237 236 237 238 235 232 232 232 232 231 231 242 253 254 256 258 260 262 264 267 272 274 276 278 280 282 284 287 291 294 296 299 301 303 306 308 310 313 314 315 316 318 320 321 323 323 322 320 319 320 320 322 322 323 324 324 325 325 324 324 323 323 321 320 319 318 316 313 311 310 310 310 310 309 308 304
238 239 237 235 237 237 235 232 232 233 231 231 235 238 237 239 243 242 240 240 240 239 238 239 243 242 237 234 234 236 238 238 246 254 257 258 260 261 263 265 268 271 273 277 280 281 282 284 286 290 292 295 297 300 302 304 306 309 311 312 313 314 317 319 320 321 320 318 317 318 319 320 322 323 324 324 324 324 325 324 323 322 322 321 318 317 317 316 312 309 308 308 308 307 307 305 301
237 239 237 236 238 237 234 232 231 233 233 232 235 236 236 239 242 242 240 240 241 241 241 241 243 245 244 241 239 240 242 242 246 252 255 257 260 262 265 268 269 270 272 275 278 280 281 283 286 289 291 293 296 299 301 303 305 307 309 311 312 313 315 317 318 318 317 316 316 317 319 321 323 323 323 323 324 324 323 323 322 321 320 317 315 315 316 315 311 307 306 306 306 306 307 305 300
237 238 238 237 238 235 232 232 232 232 233 233 234 235 235 238 242 243 241 242 243 243 244 245 245 246 246 245 245 245 245 245 246 249 251 253 257 260 264 266 267 269 272 274 275 277 279 282 285 287 289 292 295 297 299 301 303 305 307 309 310 312 314 315 316 315 314 314 315 317 319 321 321 321 321 322 322 322 321 321 320 319 317 314 313 315 316 314 310 307 305 305 306 306 306 305 301
236 238 238 238 238 236 233 233 234 233 232 232 234 234 235 237 242 244 244 243 243 241 243 246 245 246 247 248 248 247 248 249 248 249 251 253 256 258 260 263 266 269 271 272 273 275 278 281 283 285 288 290 293 295 297 299 301 303 305 307 309 310 312 313 313 312 312 312 314 316 318 319 319 320 320 321 321 321 319 318 318 317 315 313 313 315 316 312 309 308 306 304 304 304 305 304 302
236 236 236 237 238 237 237 235 235 233 230 230 233 233 234 236 239 242 243 243 242 239 242 246 246 246 248 249 249 248 247 248 249 251 252 254 256 257 259 262 265 268 270 271 273 275 278 280 282 284 287 289 291 294 295 297 299 301 303 305 307 308 309 310 310 310 310 311 313 315 316 317 318 319 319 319 319 319 318 317 317 316 315 314 313 315 316 312 308 308 308 306 304 303 304 303 299
234 236 236 237 238 238 238 236 235 234 232 231 232 231 232 234 237 241 242 241 241 238 239 245 246 246 247 248 250 250 248 249 252 254 255 256 257 258 259 261 264 267 269 271 273 275 278 279 281 284 285 288 291 292 294 296 298 299 301 303 305 306 307 307 308 308 308 310 312 313 314 316 316 317 318 318 317 317 316 316 316 315 314 313 313 314 315 313 309 308 308 308 306 304 303 300 297
231 233 234 236 237 237 238 236 235 237 236 234 233 231 231 234 237 240 240 239 240 238 237 241 245 246 247 248 250 251 250 250 252 254 255 257 258 259 260 261 264 267 269 272 274 276 277 279 281 283 285 288 290 291 293 294 296 297 300 302 303 303 304 305 305 306 307 309 310 311 313 314 315 315 315 315 316 316 316 315 314 314 314 314 314 314 314 313 311 310 309 307 306 304 302 299 295